Lid_Strength_Index
3 3 3 3 3 3 3 3 3 3 3 3 3 3 3 3 2 2 3 2 4 6 5 4 3 5 5 5 8 6 6 6 7 10 10 11 12 10 11 10 11 12 14 13 12 13 17 11 8 12 12 10 10 10
2 3 3 3 3 3 3 3 3 3 3 3 3 3 3 3 2 2 4 2 2 5 5 2 1 1 2 2 4 5 7 7 7 9 9 10 11 10 10 15 8 13 11 13 12 13 11 10 11 11 10 11 10 10
2 2 2 2 3 3 3 3 3 3 3 3 3 2 3 3 2 2 3 2 4 6 5 4 4 1 -0 0 0 6 4 4 6 4 8 9 11 8 12 11 10 9 7 11 11 11 10 10 9 10 9 10 9 9
2 2 2 2 2 3 3 2 3 3 3 3 3 2 2 3 2 2 2 2 3 5 7 5 1 2 0 0 1 1 3 2 3 4 8 9 10 6 9 9 9 8 8 9 11 10 10 10 10 10 9 9 9 9
2 2 2 2 2 2 2 2 3 3 3 2 2 2 2 2 2 1 0 1 1 4 8 6 2 1 1 1 2 2 3 4 5 6 6 8 6 7 6 7 10 8 10 11 12 10 10 11 10 10 11 11 10 10
2 2 2 2 2 2 2 2 2 2 2 2 2 2 3 2 2 1 6 1 0 1 4 8 2 3 2 2 3 4 3 4 5 6 6 5 4 7 10 10 9 8 7 8 10 9 10 10 10 10 11 11 10 10
2 2 2 2 2 2 2 2 2 2 2 2 2 2 2 2 1 4 5 3 0 1 6 8 6 3 3 3 4 5 4 6 6 7 6 6 6 6 8 10 8 8 8 8 7 8 10 10 10 10 10 11 11 11
1 1 1 2 2 2 2 2 2 3 2 2 2 2 2 2 2 4 1 1 1 5 6 8 7 6 3 7 7 5 6 6 6 6 6 7 5 6 10 7 7 7 8 8 8 8 9 9 9 10 10 10 11 12
1 1 1 1 2 1 2 2 2 2 2 2 2 2 3 4 5 3 1 1 1 5 8 8 9 10 4 6 5 5 6 8 4 8 7 5 7 10 9 8 8 8 9 9 9 9 10 10 11 11 11 12 12 13
1 1 1 1 1 1 1 2 2 2 2 2 2 5 7 4 0 2 4 6 6 6 5 8 5 8 5 6 7 7 6 8 10 8 5 8 8 8 8 9 9 9 9 9 10 11 11 12 12 12 13 13 14 15
1 1 1 0 0 1 1 1 1 1 1 3 6 6 2 0 3 5 7 8 7 9 7 7 6 7 4 8 9 6 8 7 10 9 9 10 10 11 9 10 9 9 9 9 9 10 10 10 11 12 13 14 14 15
1 1 1 0 1 1 1 1 1 1 2 3 3 2 3 5 6 8 9 8 9 9 6 8 7 5 5 3 6 6 9 8 12 7 10 12 11 10 10 11 11 10 11 11 11 11 12 12 12 13 14 14 15 16
2 1 1 1 1 1 1 1 1 1 1 3 5 7 6 7 11 11 12 10 10 7 6 6 8 6 5 5 8 8 11 11 6 11 11 11 11 11 11 11 12 11 12 12 13 13 13 14 14 14 16 16 16 17
1 1 1 1 1 1 1 1 1 1 5 7 7 10 10 10 9 8 8 7 6 6 6 6 7 7 6 9 9 11 9 8 12 13 14 11 11 12 12 13 14 15 15 15 15 15 16 16 17 17 17 17 17 17
1 1 1 2 1 1 1 1 1 3 6 7 7 11 10 7 6 6 6 6 5 4 5 6 6 6 8 9 9 10 12 13 11 12 11 11 12 12 13 13 14 16 16 15 15 16 17 16 16 16 16 15 16 17
2 2 2 1 1 1 1 2 4 5 6 6 7 8 7 8 8 8 7 7 4 5 4 5 8 9 10 9 11 12 12 13 11 11 11 12 13 13 14 14 15 15 14 14 15 15 15 16 16 15 15 15 16 16
2 3 2 1 1 1 2 3 5 6 6 9 9 7 7 7 8 7 6 6 4 6 10 7 10 11 8 10 11 8 11 11 11 12 11 12 13 14 15 15 15 14 14 14 14 14 15 14 14 14 14 14 14 14
3 2 2 1 1 3 4 5 6 7 11 8 9 9 8 7 7 7 6 4 5 6 6 8 6 10 11 12 11 10 11 11 11 12 12 12 13 13 13 13 14 14 14 14 14 14 14 14 13 12 13 13 13 12
3 2 2 2 2 4 6 6 5 10 10 9 9 8 8 8 7 6 6 5 4 4 4 6 9 9 9 9 9 10 11 11 13 12 13 12 12 13 13 13 14 13 14 13 13 12 12 13 12 12 11 11 11 11
2 2 2 2 2 5 8 8 4 8 9 9 8 8 8 8 8 7 7 7 6 5 7 8 8 9 9 10 8 9 10 10 11 13 13 13 12 13 13 13 12 13 13 13 12 13 12 12 11 11 11 12 12 11
3 2 2 3 4 5 6 7 8 8 9 9 8 8 10 8 8 8 8 7 7 7 8 8 9 11 10 9 9 9 10 10 10 10 11 13 12 12 12 12 12 12 12 11 12 12 13 12 11 11 11 11 11 10
4 3 5 4 6 7 8 6 7 7 8 9 9 8 9 9 9 8 7 8 8 9 8 9 10 11 11 11 11 10 10 11 10 10 11 11 12 12 13 12 12 12 12 11 11 11 11 11 11 11 11 11 11 10
3 3 4 5 8 8 10 5 8 8 10 10 8 10 10 10 9 8 9 8 10 9 9 10 10 10 11 11 11 11 11 11 11 11 11 11 12 12 12 12 11 12 12 11 11 11 11 15 12 12 11 11 10 10
4 7 8 8 8 11 8 9 8 9 9 10 11 12 11 10 9 10 10 10 11 11 11 11 11 12 12 12 12 12 11 10 11 12 12 12 13 13 13 13 13 12 13 12 12 12 12 12 14 12 11 11 11 11
9 12 10 12 9 10 11 11 11 11 12 11 12 12 11 10 11 11 12 12 13 12 12 11 11 11 12 11 11 12 11 11 12 13 13 12 13 14 14 13 13 13 13 12 12 12 13 12 12 12 12 11 12 12
13 13 12 11 11 11 11 12 12 11 11 12 12 10 10 11 12 13 12 12 13 12 12 11 11 11 11 11 12 13 13 12 12 14 14 13 13 13 13 14 14 13 13 13 13 14 14 14 13 13 13 12 14 14
13 13 12 11 10 10 11 11 10 10 12 13 12 12 13 14 14 14 13 12 12 12 11 10 10 10 11 12 13 13 13 13 13 14 14 15 15 14 14 14 16 14 14 14 14 15 15 14 14 13 13 12 12 12
13 13 14 14 13 12 14 13 14 15 13 12 11 14 14 14 15 15 14 12 11 12 12 11 11 11 13 13 14 15 15 15 16 15 15 15 15 15 16 15 16 17 15 16 15 15 14 14 14 13 13 13 13 12
14 13 14 19 16 15 16 16 15 15 15 14 14 16 17 17 16 15 14 12 12 13 14 15 15 14 14 14 14 14 14 14 16 18 19 16 16 16 15 15 14 15 14 14 17 16 15 14 14 14 14 14 13 13
16 13 16 18 19 18 17 16 17 16 15 15 15 17 18 17 16 13 13 12 13 13 13 14 14 14 15 15 16 16 15 15 15 15 15 16 16 16 15 15 15 15 15 15 15 14 15 14 13 13 13 13 13 13
14 13 16 16 18 17 17 15 15 15 15 16 14 16 18 18 17 16 15 14 14 14 14 14 14 13 14 15 15 16 17 17 19 17 16 16 16 16 16 17 16 15 15 16 16 15 15 15 14 15 15 15 16 16
15 16 17 19 18 17 15 15 16 17 16 17 17 17 17 16 18 17 17 14 14 14 15 14 15 15 15 16 16 17 17 18 18 18 18 17 17 17 17 16 16 16 16 16 15 15 16 16 16 16 16 17 17 18
16 16 16 17 18 18 17 17 17 18 17 18 18 17 17 16 19 18 16 16 14 14 15 15 16 16 17 17 18 19 19 19 20 21 21 21 21 20 17 16 16 16 17 16 16 16 16 17 18 18 18 19 19 20